Time,TemperatureF,DewpointF,PressureIn,WindDirection,WindDirectionDegrees,WindSpeedMPH,WindSpeedGustMPH,Humidity,HourlyPrecipIn,Conditions,Clouds,dailyrainin,SolarRadiationWatts/m^2,SoftwareType,DateUTC
2013-09-02 00:04:00,74.8,71.0,29.78,SW,231,0.0,-999.0,88,-99.99,,,0.00,0,weatherlink.com 1.10,2013-09-02 04:04:00,
2013-09-02 00:19:00,74.8,71.0,29.78,SW,231,0.0,-999.0,89,-99.99,,,0.00,0,weatherlink.com 1.10,2013-09-02 04:19:00,
2013-09-02 00:34:00,74.8,72.0,29.78,SW,231,0.0,-999.0,90,-99.99,,,0.00,0,weatherlink.com 1.10,2013-09-02 04:34:00,
2013-09-02 00:49:00,74.8,72.0,29.77,SW,231,0.0,-999.0,91,-99.99,,,0.00,0,weatherlink.com 1.10,2013-09-02 04:49:00,
2013-09-02 01:04:00,74.6,72.0,29.77,SW,231,0.0,-999.0,91,-99.99,,,0.00,0,weatherlink.com 1.10,2013-09-02 05:04:00,
2013-09-02 01:19:00,74.4,72.0,29.78,SW,231,0.0,-999.0,92,-99.99,,,0.00,0,weatherlink.com 1.10,2013-09-02 05:19:00,
2013-09-02 01:34:00,74.3,72.0,29.78,SW,231,0.0,-999.0,92,-99.99,,,0.00,0,weatherlink.com 1.10,2013-09-02 05:34:00,
2013-09-02 01:49:00,74.4,72.0,29.77,SW,231,0.0,-999.0,93,-99.99,,,0.00,0,weatherlink.com 1.10,2013-09-02 05:49:00,
2013-09-02 02:05:00,74.7,73.0,29.77,SW,231,1.0,-999.0,93,-99.99,,,0.00,0,weatherlink.com 1.10,2013-09-02 06:05:00,
2013-09-02 02:20:00,74.9,73.0,29.77,SW,231,0.0,-999.0,93,-99.99,,,0.00,0,weatherlink.com 1.10,2013-09-02 06:20:00,
2013-09-02 02:35:00,74.9,73.0,29.77,SW,231,0.0,-999.0,93,-99.99,,,0.00,0,weatherlink.com 1.10,2013-09-02 06:35:00,
2013-09-02 02:50:00,75.0,73.0,29.76,SW,231,0.0,-999.0,93,-99.99,,,0.00,0,weatherlink.com 1.10,2013-09-02 06:50:00,
2013-09-02 03:05:00,75.0,73.0,29.76,SW,231,0.0,-999.0,93,-99.99,,,0.00,0,weatherlink.com 1.10,2013-09-02 07:05:00,
2013-09-02 03:20:00,75.0,73.0,29.76,SW,231,0.0,-999.0,93,-99.99,,,0.00,0,weatherlink.com 1.10,2013-09-02 07:20:00,
2013-09-02 03:35:00,75.0,73.0,29.75,SW,231,0.0,-999.0,93,-99.99,,,0.00,0,weatherlink.com 1.10,2013-09-02 07:35:00,
2013-09-02 03:50:00,74.9,73.0,29.75,SW,231,0.0,-999.0,93,-99.99,,,0.00,0,weatherlink.com 1.10,2013-09-02 07:50:00,
2013-09-02 04:05:00,74.8,73.0,29.74,SW,231,0.0,-999.0,93,-99.99,,,0.00,0,weatherlink.com 1.10,2013-09-02 08:05:00,
2013-09-02 04:20:00,74.7,73.0,29.75,SW,231,0.0,-999.0,94,-99.99,,,0.00,0,weatherlink.com 1.10,2013-09-02 08:20:00,
2013-09-02 04:35:00,74.7,73.0,29.75,SW,231,0.0,-999.0,94,-99.99,,,0.00,0,weatherlink.com 1.10,2013-09-02 08:35:00,
2013-09-02 04:50:00,74.7,73.0,29.74,SW,231,0.0,-999.0,94,-99.99,,,0.00,0,weatherlink.com 1.10,2013-09-02 08:50:00,
2013-09-02 05:04:00,74.7,73.0,29.74,SW,231,0.0,-999.0,94,-99.99,,,0.00,0,weatherlink.com 1.10,2013-09-02 09:04:00,
2013-09-02 05:19:00,74.7,73.0,29.74,SW,231,0.0,-999.0,94,-99.99,,,0.00,0,weatherlink.com 1.10,2013-09-02 09:19:00,
2013-09-02 05:34:00,74.6,73.0,29.75,SW,231,0.0,-999.0,94,-99.99,,,0.00,0,weatherlink.com 1.10,2013-09-02 09:34:00,
2013-09-02 05:50:00,74.6,73.0,29.75,SW,231,0.0,-999.0,94,-99.99,,,0.00,0,weatherlink.com 1.10,2013-09-02 09:50:00,
2013-09-02 06:05:00,74.6,73.0,29.75,SW,231,0.0,-999.0,94,-99.99,,,0.00,0,weatherlink.com 1.10,2013-09-02 10:05:00,
2013-09-02 06:20:00,74.6,73.0,29.75,SW,231,0.0,-999.0,94,-99.99,,,0.00,0,weatherlink.com 1.10,2013-09-02 10:20:00,
2013-09-02 06:35:00,74.7,73.0,29.75,SW,231,0.0,-999.0,94,-99.99,,,0.00,0,weatherlink.com 1.10,2013-09-02 10:35:00,
2013-09-02 06:50:00,74.6,73.0,29.75,SW,231,0.0,-999.0,94,-99.99,,,0.00,5,weatherlink.com 1.10,2013-09-02 10:50:00,
2013-09-02 07:05:00,74.6,73.0,29.75,SW,231,0.0,-999.0,94,-99.99,,,0.00,18,weatherlink.com 1.10,2013-09-02 11:05:00,
2013-09-02 07:20:00,74.7,73.0,29.76,SW,231,0.0,-999.0,94,-99.99,,,0.00,32,weatherlink.com 1.10,2013-09-02 11:20:00,
2013-09-02 07:35:00,74.9,73.0,29.77,SW,231,0.0,-999.0,94,-99.99,,,0.00,56,weatherlink.com 1.10,2013-09-02 11:35:00,
2013-09-02 07:50:00,75.2,73.0,29.76,SW,231,0.0,-999.0,94,-99.99,,,0.00,62,weatherlink.com 1.10,2013-09-02 11:50:00,
2013-09-02 08:05:00,75.4,73.0,29.76,SW,231,0.0,-999.0,93,-99.99,,,0.00,93,weatherlink.com 1.10,2013-09-02 12:05:00,
2013-09-02 08:20:00,75.6,74.0,29.76,SSW,211,0.0,-999.0,93,-99.99,,,0.00,125,weatherlink.com 1.10,2013-09-02 12:20:00,
2013-09-02 08:35:00,75.8,73.0,29.77,SSW,211,0.0,-999.0,92,-99.99,,,0.00,77,weatherlink.com 1.10,2013-09-02 12:35:00,
2013-09-02 08:50:00,76.1,73.0,29.76,SSW,211,0.0,-999.0,91,-99.99,,,0.00,54,weatherlink.com 1.10,2013-09-02 12:50:00,
2013-09-02 09:05:00,76.4,73.0,29.77,WSW,244,3.0,-999.0,90,-99.99,,,0.00,54,weatherlink.com 1.10,2013-09-02 13:05:00,
2013-09-02 09:21:00,76.8,74.0,29.77,West,263,0.0,-999.0,90,-99.99,,,0.00,93,weatherlink.com 1.10,2013-09-02 13:21:00,
2013-09-02 09:36:00,76.7,72.0,29.76,West,263,0.0,-999.0,86,-99.99,,,0.00,243,weatherlink.com 1.10,2013-09-02 13:36:00,
2013-09-02 09:51:00,77.7,74.0,29.75,West,259,3.0,-999.0,87,-99.99,,,0.00,329,weatherlink.com 1.10,2013-09-02 13:51:00,
2013-09-02 10:06:00,78.7,73.0,29.76,South,186,1.0,-999.0,83,-99.99,,,0.00,343,weatherlink.com 1.10,2013-09-02 14:06:00,
2013-09-02 10:21:00,79.4,73.0,29.76,South,187,1.0,-999.0,80,-99.99,,,0.00,445,weatherlink.com 1.10,2013-09-02 14:21:00,
2013-09-02 10:36:00,80.9,73.0,29.76,South,187,0.0,-999.0,76,-99.99,,,0.00,485,weatherlink.com 1.10,2013-09-02 14:36:00,
2013-09-02 10:51:00,81.9,73.0,29.76,WNW,287,0.0,-999.0,75,-99.99,,,0.00,425,weatherlink.com 1.10,2013-09-02 14:51:00,
2013-09-02 11:06:00,83.3,73.0,29.76,NNW,344,0.0,-999.0,72,-99.99,,,0.00,645,weatherlink.com 1.10,2013-09-02 15:06:00,
2013-09-02 11:21:00,83.1,71.0,29.76,WSW,257,0.0,-999.0,68,-99.99,,,0.00,178,weatherlink.com 1.10,2013-09-02 15:21:00,
2013-09-02 11:36:00,82.4,72.0,29.76,WSW,257,0.0,-999.0,71,-99.99,,,0.00,267,weatherlink.com 1.10,2013-09-02 15:36:00,
2013-09-02 11:51:00,82.5,71.0,29.75,NW,317,1.0,-999.0,69,-99.99,,,0.00,640,weatherlink.com 1.10,2013-09-02 15:51:00,
2013-09-02 12:06:00,83.6,71.0,29.75,WNW,303,2.0,-999.0,65,-99.99,,,0.00,271,weatherlink.com 1.10,2013-09-02 16:06:00,
2013-09-02 12:21:00,83.4,71.0,29.75,WNW,302,0.0,-999.0,67,-99.99,,,0.00,251,weatherlink.com 1.10,2013-09-02 16:21:00,
2013-09-02 12:36:00,82.6,71.0,29.74,WNW,302,0.0,-999.0,68,-99.99,,,0.00,199,weatherlink.com 1.10,2013-09-02 16:36:00,
2013-09-02 12:51:00,82.1,71.0,29.73,SW,221,0.0,-999.0,70,-99.99,,,0.00,144,weatherlink.com 1.10,2013-09-02 16:51:00,
2013-09-02 13:06:00,81.6,72.0,29.73,SW,221,0.0,-999.0,72,-99.99,,,0.00,109,weatherlink.com 1.10,2013-09-02 17:06:00,
2013-09-02 13:21:00,81.1,72.0,29.74,SW,221,0.0,-999.0,73,-99.99,,,0.00,70,weatherlink.com 1.10,2013-09-02 17:21:00,
2013-09-02 13:36:00,80.5,72.0,29.75,SW,221,0.0,-999.0,75,-99.99,,,0.00,54,weatherlink.com 1.10,2013-09-02 17:36:00,
2013-09-02 13:51:00,79.9,73.0,29.75,SW,221,0.0,-999.0,79,-99.99,,,0.01,54,weatherlink.com 1.10,2013-09-02 17:51:00,
2013-09-02 14:06:00,78.5,73.0,29.75,SW,221,0.0,-999.0,84,-99.99,,,0.05,58,weatherlink.com 1.10,2013-09-02 18:06:00,
2013-09-02 14:21:00,77.2,73.0,29.75,SW,221,0.0,-999.0,87,-99.99,,,0.07,56,weatherlink.com 1.10,2013-09-02 18:21:00,
2013-09-02 14:36:00,75.8,72.0,29.74,SW,221,0.0,-999.0,89,-99.99,,,0.10,25,weatherlink.com 1.10,2013-09-02 18:36:00,
2013-09-02 14:51:00,75.1,72.0,29.74,SW,221,0.0,-999.0,91,-99.99,,,0.12,37,weatherlink.com 1.10,2013-09-02 18:51:00,
2013-09-02 15:06:00,74.7,72.0,29.73,SW,221,0.0,-999.0,92,-99.99,,,0.14,67,weatherlink.com 1.10,2013-09-02 19:06:00,
2013-09-02 15:21:00,75.1,73.0,29.72,SW,221,0.0,-999.0,94,-99.99,,,0.17,287,weatherlink.com 1.10,2013-09-02 19:21:00,
2013-09-02 15:36:00,75.2,73.0,29.71,SW,221,0.0,-999.0,93,-99.99,,,0.17,325,weatherlink.com 1.10,2013-09-02 19:36:00,
2013-09-02 15:51:00,75.9,74.0,29.71,SW,217,0.0,-999.0,93,-99.99,,,0.17,281,weatherlink.com 1.10,2013-09-02 19:51:00,
2013-09-02 16:06:00,76.5,74.0,29.71,SW,217,1.0,-999.0,93,-99.99,,,0.17,274,weatherlink.com 1.10,2013-09-02 20:06:00,
2013-09-02 16:21:00,77.9,75.0,29.71,SW,218,1.0,-999.0,90,-99.99,,,0.17,230,weatherlink.com 1.10,2013-09-02 20:21:00,
2013-09-02 16:36:00,78.6,75.0,29.70,SW,218,0.0,-999.0,89,-99.99,,,0.17,617,weatherlink.com 1.10,2013-09-02 20:36:00,
2013-09-02 16:51:00,78.6,74.0,29.71,SW,218,0.0,-999.0,86,-99.99,,,0.17,104,weatherlink.com 1.10,2013-09-02 20:51:00,
2013-09-02 17:06:00,78.6,74.0,29.71,WSW,242,0.0,-999.0,86,-99.99,,,0.17,107,weatherlink.com 1.10,2013-09-02 21:06:00,
2013-09-02 17:21:00,78.4,74.0,29.71,WSW,242,0.0,-999.0,87,-99.99,,,0.17,118,weatherlink.com 1.10,2013-09-02 21:21:00,
2013-09-02 17:36:00,78.4,74.0,29.71,SW,234,4.0,-999.0,86,-99.99,,,0.17,178,weatherlink.com 1.10,2013-09-02 21:36:00,
2013-09-02 17:51:00,78.6,73.0,29.70,SW,224,0.0,-999.0,83,-99.99,,,0.17,69,weatherlink.com 1.10,2013-09-02 21:51:00,
2013-09-02 18:06:00,78.4,73.0,29.69,SW,214,0.0,-999.0,84,-99.99,,,0.17,67,weatherlink.com 1.10,2013-09-02 22:06:00,
2013-09-02 18:21:00,78.2,73.0,29.69,SSW,213,0.0,-999.0,84,-99.99,,,0.17,70,weatherlink.com 1.10,2013-09-02 22:21:00,
2013-09-02 18:37:00,78.0,73.0,29.70,SSW,208,0.0,-999.0,83,-99.99,,,0.17,60,weatherlink.com 1.10,2013-09-02 22:37:00,
2013-09-02 18:52:00,77.9,72.0,29.70,SSW,208,0.0,-999.0,82,-99.99,,,0.17,18,weatherlink.com 1.10,2013-09-02 22:52:00,
2013-09-02 19:07:00,77.3,72.0,29.70,SSW,208,0.0,-999.0,83,-99.99,,,0.17,7,weatherlink.com 1.10,2013-09-02 23:07:00,
2013-09-02 19:22:00,76.6,72.0,29.70,SSW,208,0.0,-999.0,84,-99.99,,,0.17,0,weatherlink.com 1.10,2013-09-02 23:22:00,
2013-09-02 19:37:00,75.8,71.0,29.70,SSW,208,0.0,-999.0,86,-99.99,,,0.17,0,weatherlink.com 1.10,2013-09-02 23:37:00,
2013-09-02 19:52:00,75.3,72.0,29.70,SSW,208,0.0,-999.0,88,-99.99,,,0.17,0,weatherlink.com 1.10,2013-09-02 23:52:00,
2013-09-02 20:07:00,74.6,71.0,29.70,SSW,208,0.0,-999.0,89,-99.99,,,0.17,0,weatherlink.com 1.10,2013-09-03 00:07:00,
2013-09-02 20:22:00,74.1,71.0,29.71,SSW,208,0.0,-999.0,90,-99.99,,,0.17,0,weatherlink.com 1.10,2013-09-03 00:22:00,
2013-09-02 20:36:00,73.7,71.0,29.70,SSW,208,0.0,-999.0,91,-99.99,,,0.17,0,weatherlink.com 1.10,2013-09-03 00:36:00,
2013-09-02 20:51:00,73.4,71.0,29.70,SSW,208,0.0,-999.0,92,-99.99,,,0.17,0,weatherlink.com 1.10,2013-09-03 00:51:00,
2013-09-02 21:06:00,73.0,71.0,29.70,SSW,208,0.0,-999.0,92,-99.99,,,0.17,0,weatherlink.com 1.10,2013-09-03 01:06:00,
2013-09-02 21:21:00,73.0,71.0,29.71,SSW,208,0.0,-999.0,93,-99.99,,,0.17,0,weatherlink.com 1.10,2013-09-03 01:21:00,
2013-09-02 21:36:00,72.8,71.0,29.71,SSW,208,0.0,-999.0,93,-99.99,,,0.17,0,weatherlink.com 1.10,2013-09-03 01:36:00,
2013-09-02 21:51:00,72.6,71.0,29.70,SSW,208,0.0,-999.0,94,-99.99,,,0.17,0,weatherlink.com 1.10,2013-09-03 01:51:00,
2013-09-02 22:06:00,72.6,71.0,29.71,SSW,208,0.0,-999.0,94,-99.99,,,0.17,0,weatherlink.com 1.10,2013-09-03 02:06:00,
2013-09-02 22:21:00,72.8,71.0,29.72,SSW,208,0.0,-999.0,94,-99.99,,,0.17,0,weatherlink.com 1.10,2013-09-03 02:21:00,
2013-09-02 22:36:00,72.9,71.0,29.72,SSW,208,0.0,-999.0,94,-99.99,,,0.17,0,weatherlink.com 1.10,2013-09-03 02:36:00,
2013-09-02 22:51:00,73.0,72.0,29.71,SSW,208,2.0,-999.0,95,-99.99,,,0.17,0,weatherlink.com 1.10,2013-09-03 02:51:00,
2013-09-02 23:06:00,73.1,71.0,29.71,SSW,208,0.0,-999.0,94,-99.99,,,0.17,0,weatherlink.com 1.10,2013-09-03 03:06:00,
2013-09-02 23:21:00,73.1,71.0,29.71,SSW,208,0.0,-999.0,94,-99.99,,,0.17,0,weatherlink.com 1.10,2013-09-03 03:21:00,
2013-09-02 23:36:00,73.1,71.0,29.72,SSW,208,0.0,-999.0,94,-99.99,,,0.17,0,weatherlink.com 1.10,2013-09-03 03:36:00,
2013-09-02 23:51:00,72.9,71.0,29.72,SSW,208,0.0,-999.0,94,-99.99,,,0.17,0,weatherlink.com 1.10,2013-09-03 03:51:00,